restaurant

Flag for Bolivia Weather past 2 weeks in Cochabamba, Bolivia

Now
50 °F

Passing clouds.


Feels Like: 50 °F
Forecast: 52 / 78 °F
Wind: No wind

Location: Cochabamba Airport

Current Time: Sep 23, 2014 at 6:23:03 AM

Latest Report: Sep 23, 2014 at 6:00 AM


Visibility: 5 mi

Pressure: 30.21 "Hg

Humidity: 82%

Dew point: 45 °F

Location of CochabambaLocation

Historic Weather in Cochabamba — Graph

°F

Cochabamba temperature yesterday

Maximum temperature yesterday: 77 °F (at 1:00 PM)
Minimum temperature yesterday: 48 °F (at 7:00 AM)
Average temperature yesterday: 62 °F

Past Weeks' High & Low Weather Summary

 TemperatureHumidityPressure
High86 °F (Sep 10, 2:00 PM)100% (Sep 21, 4:00 AM)30.45 "Hg (Sep 21, 4:00 AM)
Low46 °F (Sep 20, 6:00 AM)9% (Sep 16, 6:00 PM)30.01 "Hg (Sep 10, 4:00 PM)
Average64 °F49%30.23 "Hg
* Reported Sep 8 5:00 AM — Sep 23 5:00 AM, Cochabamba, Weather by CustomWeather, © 2014

Note: Actual official high and low records may vary slightly from our data, if they occured in-between our weather recording intervals... More about our weather records

Advertising

Cochabamba weather history for previous 24 hours

 ConditionsComfort  
Time TempWeatherWind HumidityBarometerVisibility
5:00 AM
Sep 23
52 °FPassing clouds.No wind77%30.18 "Hg5 mi
4:00 AM52 °FPassing clouds.No wind77%30.18 "HgN/A
3:00 AM54 °FPassing clouds.No wind72%30.18 "HgN/A
2:00 AM54 °FPassing clouds.No wind72%30.18 "HgN/A
1:00 AM54 °FPassing clouds.No wind77%30.18 "HgN/A
12:00 AM57 °FPassing clouds.3 mph67%30.18 "HgN/A
11:00 PM
Sep 22
61 °FPassing clouds.3 mph55%30.18 "HgN/A
10:00 PM63 °FPassing clouds.3 mph52%30.18 "HgN/A
9:00 PM63 °FPassing clouds.No wind52%30.18 "HgN/A
8:00 PM63 °FPassing clouds.3 mph52%30.15 "HgN/A
7:00 PM66 °FPassing clouds.No wind46%30.15 "HgN/A
6:00 PM70 °FPartly sunny.5 mph40%30.12 "HgN/A
5:00 PM75 °FBroken clouds.7 mph27%30.12 "HgN/A
4:00 PM75 °FScattered clouds.6 mph29%30.12 "HgN/A
3:00 PM77 °FPassing clouds.13 mph28%30.15 "HgN/A
2:00 PM77 °FPassing clouds.8 mph26%30.18 "HgN/A
1:00 PM77 °FPassing clouds.5 mph26%30.21 "HgN/A
12:00 PM72 °FPassing clouds.No wind36%30.27 "HgN/A
11:00 AM70 °FPassing clouds.No wind43%30.33 "HgN/A
10:00 AM66 °FPassing clouds.No wind60%30.33 "Hg3 mi
9:00 AM59 °FFog.No wind88%30.36 "Hg2 mi
8:03 AM54 °FFog.No wind94%30.33 "Hg1 mi
8:00 AM52 °FFog.No wind100%30.33 "Hg1 mi
7:00 AM48 °FFog.No wind100%30.30 "Hg0 mi
6:00 AM50 °FFog.No wind100%30.30 "Hg0 mi
Weather by CustomWeather, © 2014

See weather overviewHow to use our weather pages